Regional Weather Roundup
Issued by NWS Northern Indiana

Home | Current Version | Previous Version | Graphics & Text | Print | Product List | Glossary On
Versions: 1 2 3 4 5 6 7 8 9 10 11 12 13 14 15 16 17 18 19 20 21 22 23 24 25 26 27 28 29 30 31 32 33 34 35 36 37 38 39 40 41 42 43 44 45 46 47 48 49 50
000
ASUS43 KIWX 210310
RWRIWX

KIWX WEATHER ROUNDUP
NATIONAL WEATHER SERVICE NORTHERN INDIANA
1100 PM EDT FRI APR 20 2018

NOTE: "FAIR" INDICATES FEW OR NO CLOUDS BELOW 12,000 FEET WITH NO
SIGNIFICANT WEATHER AND/OR OBSTRUCTIONS TO VISIBILITY.

* THESE STATIONS ARE NOT UNDER NWS QUALITY CONTROL. THEY ALSO MAY NOT
  REPORT WEATHER SUCH AS PRECIPITATION OR FOG.

INZ001>027-210400-
NORTHERN INDIANA

CITY           SKY/WX    TMP DP  RH WIND       PRES   REMARKS
GARY*          PTCLDY    37  30  75 CALM      30.45S
VALPARAISO     FAIR      40  18  41 NE5       30.45S
MICHIGAN CITY* FAIR      36  21  55 CALM      30.46S
LAPORTE*       FAIR      40  16  37 CALM      30.45S
KNOX*          FAIR      37  23  56 N6        30.44S
SOUTH BEND     FAIR      37  18  46 N6        30.45R
GOSHEN         FAIR      42  26  53 N3        30.44R
MONTICELLO*    FAIR      47  21  36 N6        30.42S
LOGANSPORT*    FAIR      43  27  52 N6        30.43S
ROCHESTER*     FAIR      45  28  53 CALM      30.44S
WARSAW*        FAIR      45  28  53 N3        30.43S
AUBURN*        FAIR      41  23  48 CALM      30.43S
FORT WAYNE     FAIR      45  29  53 CALM      30.43S
HUNTINGTON*    FAIR      43  22  44 CALM      30.42S
PERU/GRISSOM   PTCLDY    43  25  49 CALM      30.41R
MARION*        FAIR      46  23  40 CALM      30.43R

$$
INZ028>050-210400-
CENTRAL INDIANA

CITY           SKY/WX    TMP DP  RH WIND       PRES   REMARKS
LAFAYETTE      FAIR      45  24  43 CALM      30.41S
KOKOMO*        FAIR      42  30  62 N3        30.43R
MUNCIE*        FAIR      44  27  51 E5        30.42S
INDIANAPOLIS   FAIR      50  22  33 E6        30.41R

$$
MIZ043>046-050>051-056>058-064>065-071>073-077>080-210400-
SOUTHWEST LOWER MICHIGAN

CITY           SKY/WX    TMP DP  RH WIND       PRES   REMARKS
BATTLE CREEK   FAIR      46  23  40 NW3       30.45R
BENTON HARBOR  FAIR      34  21  59 CALM      30.45S
COLDWATER*     FAIR      40  31  70 CALM      30.43S
HILLSDALE*     FAIR      39  21  48 E5        30.43R
HOLLAND        FAIR      37  29  72 CALM      30.46R
GRAND RAPIDS   FAIR      45  19  35 W5        30.44S
KALAMAZOO      FAIR      46  20  35 N5        30.45R
STURGIS*       FAIR      46  26  46 N6        30.42S
THREE RIVERS*  FAIR      47  22  38 CALM      30.44S

$$
OHZ001>008-015>018-024>025-210400-
NORTHWEST OHIO

CITY           SKY/WX    TMP DP  RH WIND       PRES   REMARKS
WAUSEON*       FAIR      43  27  52 E8        30.44R
DEFIANCE       FAIR      42  29  59 CALM      30.43R
FINDLAY        FAIR      45  22  40 SE6       30.44R
TOLEDO EXPRESS FAIR      44  27  51 E3        30.45R
TOLEDO METCALF FAIR      43  25  49 SE3       30.46R
LIMA           FAIR      42  27  55 SE9       30.43R

$$
AND FOR LAKE MICHIGAN COASTAL AND OPEN LAKE BUOY OBSERVATIONS

STATION/POSITION TEMP    WIND        PRES    VSBY  WAVE
                 AIR SEA DIR/SP/G                  HT/PER
                 (F)     (DEG/KT/KT) (MB)    (MI)  (FT/S)
CALUMET HARBOR    40     350/  2/  3 1030.5R
MICHIGAN CITY     42      50/  7/  8   N/A
BURNS HARBOR      44      80/  8/  9 1031.2S
SAINT JOSEPH      41      CALM  /  2 1031.2

$$
&&



USA.gov is the U.S. government's official web portal to all federal, state and local government web resources and services.